www.pogodaiklimat.ru

Погода и климат >> Архив погоды >> Канада >> Нунавут >> Кембридж Бэй


ПОГОДА в Кембридж Бэй

  • Прогноз погоды в Кембридж Бэй
  • Монитор погоды в Кембридж Бэй

АРХИВ ПОГОДЫ в Кембридж Бэй

Время (UTC), дата Ветер
(напр.,м/с)
 
Видим.   Явления Облачность Т
(С)
Тd
(С)
f
(%)
Тe
(С)
Тes
(С)
Комфортность P
(гПа)
Po
(гПа)
Тmin
(С)
Tmax
(С)
R
(мм)
R24
(мм)
S
(см)
00 14.03 С 4 24 км {снег} 8/0
[Ac trans]
-25.0 -29.4 67 -35 -35 опасность
обморожения
1022.0 1017.7 -27.6 -22.4 0.0 36
03 14.03 СВ 2 24 км 9/0
[]
-24.3 -28.9 66 -31 -31 опасность
обморожения
1023.9 1019.6
06 14.03 С 2 24 км 8/0
[Ac As]
-24.2 -28.9 65 -31 -31 опасность
обморожения
1024.9 1020.6 -27.6 -22.4 151
09 14.03 С 2 24 км 9/0 2000 м
[]
-23.4 -28.2 65 -29 -29 1026.5 1022.2
12 14.03 СВ 1 24 км 8/0
[Ac As]
-23.6 -28.5 64 -27 -27 1027.4 1023.1 -25.9 -22.4 36
15 14.03 СВ 6 24 км 6/6 1500 м
[]
-30.1 -34.5 65 -43 -43 опасность
обморожения
1028.7 1024.3
18 14.03 СВ 6 24 км 3/1 1500 м
[Sc Ac As]
-31.1 -35.6 64 -45 -44 опасность
обморожения
1029.0 1024.6 -31.2 -23.2
21 14.03 СВ 6 24 км 1/0
[]
-30.8 -35.3 65 -44 -43 опасность
обморожения
1029.6 1025.2
00 15.03 СВ 4 24 км ясно -32.3 -36.7 65 -43 -43 опасность
обморожения
1029.9 1025.5 -32.3 -23.3
03 15.03 СВ 4 24 км ясно -35.0 -39.2 65 -47 -47 опасность
обморожения
1030.1 1025.7
06 15.03 С 3 24 км ледяные иглы {снег} ясно -35.8 -40.1 64 -47 -47 опасность
обморожения
1030.1 1025.7 -36.5 -23.2 0.0 36
09 15.03 СВ 3 24 км ясно -36.8 -41.1 64 -48 -48 опасность
обморожения
1030.3 1025.9
12 15.03 СВ 3 24 км ледяные иглы {снег} ясно -36.8 -41.1 64 -48 -48 опасность
обморожения
1030.4 1026.0 -37.3 -23.2 0.0 36
15 15.03 СВ 3 24 км ясно -37.1 -41.5 63 -47 -47 опасность
обморожения
1030.3 1025.8
18 15.03 СВ 3 24 км {снег} ясно -33.5 -37.9 64 -44 -42 опасность
обморожения
1030.4 1026.0 -37.8 -33.5 0.0 36
21 15.03 В 3 24 км ясно -30.3 -34.8 65 -39 -37 опасность
обморожения
1029.9 1025.5
00 16.03 В 4 24 км 1/0
[Ac trans]
-31.4 -35.9 64 -42 -42 опасность
обморожения
1029.6 1025.2 -37.8 -30.2
03 16.03 В 2 24 км 1/0
[]
-33.5 -37.7 66 -42 -42 опасность
обморожения
1028.7 1024.3
09 16.03 ЮВ 5 12 км 4/0
[]
-30.9 -34.9 68 -44 -44 опасность
обморожения
1026.0 1021.6
12 16.03 В 8 4000 м ледяные иглы {снег} 6/0
[Ac As]
-31.0 -35.0 68 -46 -46 опасность
обморожения
1024.0 1019.6 0.0 36
15 16.03 В 9 2400 м 8/0
[]
-28.1 -32.0 69 -44 -44 опасность
обморожения
1022.3 1017.9
18 16.03 ЮВ 8 1600 м ледяные иглы {снег} 5/5 600 м
[Sc Ac trans]
-25.7 -29.5 70 -40 -40 опасность
обморожения
1020.7 1016.3 -25.7 0.0 37
21 16.03 В 8 1200 м 5/5 600 м
[]
-23.8 -27.5 71 -37 -37 опасность
обморожения
1019.4 1015.1
00 17.03 В 7 2400 м слаб. снег 6/3 600 м
[Sc Ac trans]
-22.8 -26.4 72 -35 -35 опасность
обморожения
1018.9 1014.6 -32.5 -22.8 0.0 37
03 17.03 В 8 1600 м 4/4 600 м
[]
-23.6 -27.1 73 -37 -37 опасность
обморожения
1018.3 1014.0
06 17.03 СВ 8 4000 м слаб. снег 5/5 300 м
[Sc]
-27.6 -31.4 70 -42 -42 опасность
обморожения
1018.9 1014.6 -32.5 -22.7 0.2 151
09 17.03 СВ 7 4800 м 3/3 300 м
[]
-30.2 -34.2 68 -45 -45 опасность
обморожения
1019.7 1015.4
12 17.03 СВ 10 4800 м ледяные иглы {снег} 3/3 300 м
[Sc]
-32.0 -36.1 67 -49 -49 опасность
обморожения
1021.0 1016.7 -32.0 -22.7 0.0 37
15 17.03 СВ 8 4800 м ясно -32.1 -36.4 65 -48 -48 опасность
обморожения
1022.0 1017.6
18 17.03 СВ 8 6000 м ледяные иглы {снег} ясно -29.8 -34.0 67 -45 -45 опасность
обморожения
1023.2 1018.8 -32.6 -27.6 0.0 37
21 17.03 СВ 6 24 км ясно -27.2 -31.4 67 -40 -39 опасность
обморожения
1024.1 1019.7
00 18.03 СВ 5 24 км ледяные иглы {снег} 1/0
[]
-28.0 -32.0 68 -40 -40 опасность
обморожения
1024.7 1020.3 -32.6 -27.1 0.0 37
03 18.03 СВ 5 4800 м 9/9 600 м
[]
-30.3 -34.3 68 -43 -43 опасность
обморожения
1024.2 1019.8
06 18.03 В 5 9000 м слаб. снег 5/0
[Ac trans Ci fib]
-30.0 -34.0 68 -42 -42 опасность
обморожения
1022.7 1018.3 -32.6 -27.1 0.0 111
09 18.03 ЮВ 6 4800 м 5/0
[]
-27.4 -31.2 70 -40 -40 опасность
обморожения
1019.6 1015.3
12 18.03 В 5 3200 м ледяные иглы {снег} 9/0
[Ac trans]
-26.9 -30.6 71 -39 -39 опасность
обморожения
1015.8 1011.5 -30.7 -27.1 0.0 37
15 18.03 В 9 1200 м 6/0 2000 м
[]
-24.9 -28.6 71 -40 -40 опасность
обморожения
1011.7 1007.4
18 18.03 1000 м слаб. снег н/о -21.6 -25.1 73 -35 -35 опасность
обморожения
1008.3 1004.0 -30.7 -21.6 0.4 37
21 18.03 В 9 2400 м 9/9 100 м
[]
-19.4 -22.8 74 -32 -32 опасность
обморожения
1006.6 1002.3
00 19.03 800 м слаб. снег н/о -21.0 -24.3 75 -36 -36 опасность
обморожения
1008.2 1003.9 -30.0 -19.3 0.8 37
03 19.03 СВ 11 4000 м 3/3 50 м
[]
-23.8 -27.3 73 -39 -39 опасность
обморожения
1010.4 1006.1
06 19.03 СВ 8 4800 м метель {снег} 4/1 100 м
[Cu hum Ci fib]
-26.9 -30.7 70 -42 -42 опасность
обморожения
1014.0 1009.7 -30.0 -19.3 0.2 11
09 19.03 СВ 8 8000 м 3/3 100 м
[]
-29.5 -33.7 67 -45 -45 опасность
обморожения
1016.8 1012.5
12 19.03 СВ 6 19 км позёмок 4/1 100 м
[St Ci fib]
-32.9 -37.2 65 -47 -47 опасность
обморожения
1018.1 1013.8 -32.9 -19.3 37
15 19.03 В 4 24 км 9/9 100 м
[]
-31.2 -35.7 64 -42 -42 опасность
обморожения
1018.5 1014.2
18 19.03 ЮВ 6 2800 м дымка 8/1 100 м
[St Ac As]
-26.1 -30.0 70 -38 -38 опасность
обморожения
1017.2 1012.9 -33.0 -26.1
21 19.03 ЮВ 9 4000 м 10/10 1500 м
[]
-21.8 -25.3 73 -36 -36 опасность
обморожения
1013.2 1008.9
00 20.03 ЮВ 9 3200 м метель {снег} 9/0 2000 м
[Ac As]
-19.8 -23.1 75 -33 -33 опасность
обморожения
1008.9 1004.6 -33.0 -19.8 0.0 37
03 20.03 ЮВ 6 12 км 5/5 1000 м
[]
-19.4 -22.4 77 -30 -30 1005.6 1001.3
06 20.03 С 1 16 км ледяные иглы {снег} 5/1 1000 м
[Sc Ac trans]
-20.5 -23.4 78 -21 -21 1002.4 998.1 -33.0 -18.7 0.0 11
09 20.03 С 4 17 км 3/3 300 м
[]
-19.6 -22.6 77 -28 -28 1001.6 997.4
12 20.03 СЗ 4 24 км {снег} 9/9 100 м
[Sc]
-18.8 -21.3 81 -28 -28 1001.0 996.8 -21.6 -18.7 0.0 37
15 20.03 СЗ 5 6000 м 10/10 200 м
[]
-18.0 -20.7 79 -27 -27 1002.4 998.2
18 20.03 СЗ 5 9000 м слаб. снег 10/10 200 м
[Sc]
-16.9 -19.6 80 -26 -26 1003.7 999.5 -26.0 -16.9 0.0 37
21 20.03 СЗ 7 2000 м 9/9 300 м
[]
-16.0 -18.6 80 -26 -26 1007.4 1003.2

 

Местоположение метеостанции Кембридж Бэй (Нунавут, Канада): широта 69.10 долгота -105.10 высота над уровнем моря 27 м.

В архиве по умолчанию представлена погода в Кембридж Бэй за последнюю неделю. Архивные данные за месяц целиком и за предыдущие месяцы, начиная с января 2011 года, Вы можете получить, выбрав интересующий диапазон дат из раскрывающегося списка и нажав кнопку "Ввод!".


*Определитесь, кто Вы:
робот инопланетянин человек

Внимание! Время в таблицах - всемирное. Для получения местного времени необходимо прибавить поправку, которая равна -7 ч.

Смотрите также архив погоды в соседних городах и на ближайших метеорологических станциях:

Погода на Мысе Пил-Вест (Нунавут, Канада) (108 км)
Погода на Острове Хат (Нунавут, Канада) (223 км)
Погода в Джойа Хейвен (Нунавут, Канада) (374 км)
Погода в Куглуктуке (Нунавут, Канада) (432 км)
Погода в Куглуктуке (Северо-Западные территории, Канада) (432 км)
Погода в Люпине (Нунавут, Канада) (452 км)
Погода в Саскатуне (Саскачеван, Канада) (452 км)
Погода в Талойоаке (Нунавут, Канада) (454 км)
Погода на Озере Робертсон (Нунавут, Канада) (460 км)
Погода в Шеперд-Бее (Нунавут, Канада) (466 км)

Пояснения к столбцам:

Ветер - указаны скорость ветра в м/с - средняя за 10 мин, порывы в срок и между сроками (в фигурных скобках) и направление, откуда дует ветер: С - северный, СВ - северо-восточный, В - восточный, ЮВ - юго-восточный, Ю - южный, ЮЗ - юго-западный, З - западный, СЗ - северо-западный.
Видимость - горизонтальная дальность видимости в метрах или километрах. При видимости от 1 до 10 км при отсутствии осадков обычно наблюдается дымка, при ухудшении видимости до 1 км и менее - туман. В сухую погоду видимость может ухудшаться дымом, пылью или мглою.
Явления - указаны атмосферные явления, наблюдавшиеся в срок или в последний час перед сроком; фигурными скобками обозначены явления, наблюдавшиеся между сроками (за 1-3 часа до срока); квадратными скобками обозначены град или гололедные отложения с указанием их диаметра в мм.
Облачность - указаны через наклонную черту общая и нижняя облачность в баллах и высота нижней границы облаков в метрах; квадратными скобками обозначены формы облаков: Ci - перистые, Cs - перисто-слоистые, Cc - перисто-кучевые, Ac - высококучевые, As - высокослоистые, Sc - слоисто-кучевые, Ns - слоисто-дождевые, Cu - кучевые, Cb - кучево-дождевые. Подробнее классификацию облаков см. в Атласе облаков (PDF).
T - Температура воздуха - температура, измеренная на высоте 2 м над землей.
Td - Температура точки росы - температура, при понижении до которой содержащийся в воздухе водяной пар достигнет насыщения.
f - Относительная влажность воздуха - влажноcть воздуха, измеренная на высоте 2 м над землей.
Te - Эффективная температура - температура, которую ощущает одетый по сезону человек в тени. Характеристика душности погоды. При расчете учитывается влияние влажности воздуха и скорости ветра на теплоощущения человека.
Tes - Эффективная температура на солнце - температура, которую ощущает человек, с поправкой на солнечный нагрев. Характеристика знойности погоды. Зависит от высоты солнца над горизонтом, облачности и скорости ветра. Ночью, в пасмурную погоду, а также при ветре 12 м/с и более поправка равна нулю.
P - Атмосферное давление - приведенное к уровню моря атмосферное давление.
Po - Атмосферное давление - измеренное на уровне метеостанции атмосферное давление.
Tmin - Минимальная температура - минимум температуры воздуха на высоте 2 м над землей.
Tmax - Максимальная температура - максимум температуры воздуха на высоте 2 м над землей.
R - Количество осадков - Количество выпавших осадков за период времени, мм. При наведении курсора мыши на число - период времени, за который выпало указанное количество осадков.
R24 - Количество осадков - Количество выпавших осадков за 24 часа, мм.
S - Снежный покров - Высота снежного покрова, см. При наведении курсора мыши на число - состояние снежного покрова и степень покрытия местности в баллах.